This demonstration page uses our WeatherBlox Daily Observations layout. Learn more.

Left ArrowRight Arrow

Hourly Observations for September 6, 2020

Temp ( °F °C ) Dew Point ( °F °C ) Humidity (%) Winds ( mph kmh ) Pressure ( in mb ) Visibility ( mi km ) Precip ( " mm )
12:15 am 00:15 Clear 76 24.5 60 15.5 57 57 S 12 19 29.90 1013 10 16 N/A
12:35 am 00:35 Clear 76 24.2 60 15.5 58 58 S 12 19 29.90 1013 10 16 N/A
12:55 am 00:55 Clear 75 23.7 60 15.5 60 60 S 14 22 29.90 1012 10 16 N/A
1:15 am 01:15 Clear 74 23.5 60 15.6 61 61 S 12 19 29.89 1012 10 16 N/A
1:35 am 01:35 Clear 74 23.2 60 15.6 62 62 S 13 20 29.89 1012 10 16 N/A
1:55 am 01:55 Clear 73 23 60 15.7 64 64 S 10 17 29.89 1012 10 16 N/A
2:15 am 02:15 Clear 73 23 60 15.8 64 64 SSW 12 19 29.88 1012 10 16 N/A
2:35 am 02:35 Clear 74 23.1 61 16 64 64 SSW 13 20 29.88 1012 10 16 N/A
2:55 am 02:55 Clear 74 23.1 61 16 64 64 SSW 14 22 29.88 1012 10 16 N/A
3:15 am 03:15 Clear 74 23.3 61 16 64 64 SSW 14 22 29.87 1012 10 16 N/A
3:35 am 03:35 Clear 74 23.5 61 16 63 63 SSW 14 22 29.86 1011 10 16 N/A
3:55 am 03:55 Clear 74 23.5 61 16 63 63 SSW 14 22 29.85 1011 10 16 N/A
4:15 am 04:15 Clear 74 23.4 61 16 63 63 SSW 17 28 29.84 1010 10 16 N/A
4:35 am 04:35 Clear 74 23.2 61 16 64 64 SSW 16 26 29.83 1010 10 16 N/A
4:55 am 04:55 Clear 74 23.4 61 16 63 63 SSW 16 26 29.83 1010 10 16 N/A
5:15 am 05:15 Clear 74 23.1 61 16 64 64 SSW 16 26 29.82 1010 10 16 N/A
5:35 am 05:35 Clear 73 23 61 16 65 65 SSW 16 26 29.81 1010 10 16 N/A
5:55 am 05:55 Clear 73 22.7 61 16 66 66 SSW 15 24 29.80 1009 10 16 N/A
6:15 am 06:15 Clear 72 22.2 61 16 68 68 SSW 13 20 29.80 1009 10 16 N/A
6:35 am 06:35 Clear 71 21.7 60 15.8 69 69 SSW 12 19 29.80 1009 10 16 N/A
6:55 am 06:55 Clear 71 21.5 60 15.7 70 70 S 15 24 29.80 1009 10 16 N/A
7:15 am 07:15 Sunny 70 21.3 60 15.7 71 71 S 12 19 29.79 1009 10 16 N/A
7:35 am 07:35 Sunny 71 21.4 60 15.7 70 70 SSW 13 20 29.81 1009 10 16 N/A
7:55 am 07:55 Sunny 71 21.5 60 15.7 70 70 SSW 13 20 29.80 1009 10 16 N/A
8:15 am 08:15 Sunny 72 22.1 60 15.7 67 67 SSW 12 19 29.78 1008 10 16 N/A
8:35 am 08:35 Sunny 73 22.7 60 15.8 65 65 SW 8 13 29.80 1009 10 16 N/A
8:55 am 08:55 Sunny 74 23.5 60 15.7 62 62 SSW 13 20 29.77 1008 10 16 N/A
9:15 am 09:15 Sunny 76 24.3 60 15.6 58 58 SW 15 24 29.74 1007 10 16 N/A
9:35 am 09:35 Sunny 77 25.2 59 15.1 54 54 SW 14 22 29.75 1007 10 16 N/A
9:55 am 09:55 Sunny 79 26 60 15.3 52 52 WSW 10 17 29.74 1007 10 16 N/A
10:15 am 10:15 Sunny 79 26.1 59 15 50 50 SW 13 20 29.73 1007 10 16 N/A
10:35 am 10:35 Sunny 80 26.5 58 14.6 48 48 W 18 30 29.75 1007 10 16 N/A
10:55 am 10:55 Sunny 80 26.8 57 14.1 46 46 WSW 10 17 29.73 1007 10 16 N/A
11:15 am 11:15 Sunny 81 27.3 57 14 44 44 W 10 17 29.73 1007 10 16 N/A
11:35 am 11:35 Sunny 82 27.9 56 13.6 41 41 WSW 9 15 29.72 1007 10 16 N/A
11:55 am 11:55 Sunny 83 28.5 57 14 41 41 WNW 7 11 29.72 1006 10 16 N/A
12:15 pm 12:15 Sunny 84 28.7 57 13.8 40 40 NW 9 15 29.72 1006 10 16 N/A
12:35 pm 12:35 Sunny 84 28.7 57 13.9 40 40 N 9 15 29.73 1007 10 16 N/A
12:55 pm 12:55 Sunny 85 29.4 58 14.6 40 40 N 6 9 29.74 1007 10 16 N/A
1:15 pm 13:15 Sunny 85 29.7 59 14.9 41 41 N 7 11 29.73 1007 10 16 N/A
1:35 pm 13:35 Sunny 87 30.7 58 14.5 37 37 N 10 17 29.72 1007 10 16 N/A
1:55 pm 13:55 Sunny 89 31.8 54 12 30 30 NNE 14 22 29.71 1006 10 16 N/A
2:15 pm 14:15 Sunny 90 32.1 55 12.9 31 31 NE 14 22 29.70 1006 10 16 N/A
2:35 pm 14:35 Sunny 91 32.5 56 13.5 31 31 NE 14 22 29.70 1006 10 16 N/A
2:55 pm 14:55 Sunny 92 33.1 57 14 31 31 NE 16 26 29.69 1006 10 16 N/A
3:15 pm 15:15 Sunny 91 33 53 11.4 27 27 NE 15 24 29.70 1006 10 16 N/A
3:35 pm 15:35 Sunny 91 32.9 55 12.6 29 29 NE 16 26 29.70 1006 10 16 N/A
3:55 pm 15:55 Sunny 91 32.7 55 12.6 29 29 NE 12 19 29.71 1006 10 16 N/A
4:15 pm 16:15 Sunny 90 32.3 55 12.7 30 30 ENE 12 19 29.71 1006 10 16 N/A
4:35 pm 16:35 Sunny 90 32.2 56 13.2 31 31 ENE 8 13 29.71 1006 10 16 N/A
4:55 pm 16:55 Sunny 90 32.3 57 13.9 33 33 ENE 8 13 29.72 1006 10 16 N/A
5:15 pm 17:15 Sunny 90 32.2 57 14.1 33 33 ENE 7 11 29.72 1006 10 16 N/A
5:35 pm 17:35 Sunny 90 32.3 58 14.3 34 34 ENE 7 11 29.72 1006 10 16 N/A
5:55 pm 17:55 Sunny 90 32.1 59 14.8 35 35 ENE 7 11 29.71 1006 10 16 N/A
6:15 pm 18:15 Sunny 89 31.6 60 15.6 38 38 NE 5 7 29.72 1006 10 16 N/A
6:35 pm 18:35 Sunny 88 30.9 60 15.8 40 40 NE 7 11 29.72 1006 10 16 N/A
6:55 pm 18:55 Sunny 85 29.4 58 14.4 40 40 NNE 5 7 29.73 1007 10 16 N/A
7:15 pm 19:15 Sunny 82 27.7 57 14.1 43 43 NE 6 9 29.75 1007 10 16 N/A
7:35 pm 19:35 Sunny 78 25.4 60 15.4 54 54 NE 5 7 29.76 1008 10 16 N/A
7:55 pm 19:55 Sunny 76 24.6 61 15.9 58 58 NNE 3 6 29.78 1008 10 16 N/A
8:15 pm 20:15 Clear 74 23.6 60 15.6 61 61 NNE 7 11 29.80 1009 7 11 N/A
8:35 pm 20:35 Hazy 73 22.9 60 15.5 63 63 NNE 6 9 29.80 1009 4 6 N/A
8:55 pm 20:55 Clear 71 21.5 61 16.1 71 71 NNE 6 9 29.83 1010 10 16 N/A
9:15 pm 21:15 Clear 70 21.3 58 14.6 66 66 N 6 9 29.84 1010 10 16 N/A
9:35 pm 21:35 Clear 69 20.5 58 14.6 69 69 NNE 7 11 29.84 1011 10 16 N/A
9:55 pm 21:55 Clear 69 20.5 58 14.3 68 68 NNE 8 13 29.85 1011 10 16 N/A
10:15 pm 22:15 Clear 66 19.1 58 14.2 73 73 NNE 7 11 29.86 1011 10 16 N/A
10:35 pm 22:35 Clear 64 18 57 13.8 77 77 NE 8 13 29.87 1012 10 16 N/A
10:55 pm 22:55 Clear 65 18.5 56 13.6 73 73 NE 8 13 29.87 1012 10 16 N/A
11:15 pm 23:15 Clear 67 19.3 56 13.1 68 68 NE 9 15 29.88 1012 10 16 N/A
11:35 pm 23:35 Clear 65 18.2 55 13 72 72 NE 9 15 29.87 1012 10 16 N/A
11:55 pm 23:55 Clear 66 19 55 12.5 66 66 NE 10 17 29.88 1012 10 16 N/A

Powered by AerisWeather